Time,TemperatureF,DewpointF,PressureIn,WindDirection,WindDirectionDegrees,WindSpeedMPH,WindSpeedGustMPH,Humidity,HourlyPrecipIn,Conditions,Clouds,dailyrainin,SoftwareType,DateUTC
2013-07-05 00:02:00,69.4,36.7,24.10,NW,315,13.0,16.0,30,0.00,,,0.00,meteohub,2013-07-05 06:02:00,
2013-07-05 00:07:00,69.4,36.7,24.10,NW,315,13.0,15.0,30,0.00,,,0.00,meteohub,2013-07-05 06:07:00,
2013-07-05 00:12:00,69.1,37.2,24.10,West,270,14.0,15.0,31,0.00,,,0.00,meteohub,2013-07-05 06:12:00,
2013-07-05 00:17:00,69.3,37.4,24.10,NW,315,15.0,15.0,31,0.00,,,0.00,meteohub,2013-07-05 06:17:00,
2013-07-05 00:22:00,68.7,37.6,24.10,NW,315,15.0,17.0,32,0.00,,,0.00,meteohub,2013-07-05 06:22:00,
2013-07-05 00:27:00,68.7,36.9,24.10,West,270,16.0,17.0,31,0.00,,,0.00,meteohub,2013-07-05 06:27:00,
2013-07-05 00:32:00,68.5,37.6,24.10,NW,315,13.0,17.0,32,0.00,,,0.00,meteohub,2013-07-05 06:32:00,
2013-07-05 00:37:00,68.5,37.6,24.10,West,270,14.0,16.0,32,0.00,,,0.00,meteohub,2013-07-05 06:37:00,
2013-07-05 00:42:00,68.5,37.6,24.10,West,270,12.0,16.0,32,0.00,,,0.00,meteohub,2013-07-05 06:42:00,
2013-07-05 00:47:00,68.2,37.2,24.10,West,270,14.0,15.0,32,0.00,,,0.00,meteohub,2013-07-05 06:47:00,
2013-07-05 00:52:00,68.0,37.0,24.10,NW,315,15.0,15.0,32,0.00,,,0.00,meteohub,2013-07-05 06:52:00,
2013-07-05 00:57:00,67.8,37.6,24.10,West,270,12.0,15.0,33,0.00,,,0.00,meteohub,2013-07-05 06:57:00,
2013-07-05 01:02:00,68.0,37.0,24.10,West,270,13.0,15.0,32,0.00,,,0.00,meteohub,2013-07-05 07:02:00,
2013-07-05 01:07:00,68.0,37.0,24.10,West,270,13.0,15.0,32,0.00,,,0.00,meteohub,2013-07-05 07:07:00,
2013-07-05 01:12:00,67.5,37.4,24.10,NW,315,15.0,19.0,33,0.00,,,0.00,meteohub,2013-07-05 07:12:00,
2013-07-05 01:17:00,65.8,38.8,24.10,NW,315,14.0,19.0,37,0.00,,,0.00,meteohub,2013-07-05 07:17:00,
2013-07-05 01:22:00,65.7,38.7,24.11,NW,315,10.0,19.0,37,0.00,,,0.00,meteohub,2013-07-05 07:22:00,
2013-07-05 01:27:00,65.7,37.9,24.11,NW,315,8.0,17.0,36,0.00,,,0.00,meteohub,2013-07-05 07:27:00,
2013-07-05 01:32:00,66.4,37.9,24.11,NW,315,7.0,15.0,35,0.00,,,0.00,meteohub,2013-07-05 07:32:00,
2013-07-05 01:37:00,66.7,38.3,24.11,NW,315,8.0,11.0,35,0.00,,,0.00,meteohub,2013-07-05 07:37:00,
2013-07-05 01:42:00,66.9,37.6,24.11,NW,315,8.0,9.0,34,0.00,,,0.00,meteohub,2013-07-05 07:42:00,
2013-07-05 01:47:00,67.1,37.8,24.11,NW,315,8.0,9.0,34,0.00,,,0.00,meteohub,2013-07-05 07:47:00,
2013-07-05 01:52:00,66.7,38.3,24.11,NW,315,8.0,9.0,35,0.00,,,0.00,meteohub,2013-07-05 07:52:00,
2013-07-05 01:57:00,66.9,37.6,24.11,NW,315,10.0,10.0,34,0.00,,,0.00,meteohub,2013-07-05 07:57:00,
2013-07-05 02:02:00,67.3,37.2,24.11,NW,315,13.0,13.0,33,0.00,,,0.00,meteohub,2013-07-05 08:02:00,
2013-07-05 02:07:00,67.3,37.2,24.12,NW,315,13.0,14.0,33,0.00,,,0.00,meteohub,2013-07-05 08:07:00,
2013-07-05 02:12:00,66.9,37.6,24.11,North,0,15.0,15.0,34,0.00,,,0.00,meteohub,2013-07-05 08:12:00,
2013-07-05 02:17:00,66.7,38.3,24.12,North,0,11.0,17.0,35,0.00,,,0.00,meteohub,2013-07-05 08:17:00,
2013-07-05 02:22:00,66.6,38.1,24.11,NW,315,14.0,17.0,35,0.00,,,0.00,meteohub,2013-07-05 08:22:00,
2013-07-05 02:27:00,66.7,38.3,24.11,NW,315,16.0,17.0,35,0.00,,,0.00,meteohub,2013-07-05 08:27:00,
2013-07-05 02:32:00,66.6,38.1,24.11,NW,315,14.0,16.0,35,0.00,,,0.00,meteohub,2013-07-05 08:32:00,
2013-07-05 02:37:00,66.4,38.7,24.12,NW,315,8.0,16.0,36,0.00,,,0.00,meteohub,2013-07-05 08:37:00,
2013-07-05 02:42:00,65.8,38.8,24.12,NW,315,7.0,16.0,37,0.00,,,0.00,meteohub,2013-07-05 08:42:00,
2013-07-05 02:47:00,65.5,38.5,24.11,NW,315,4.0,14.0,37,0.00,,,0.00,meteohub,2013-07-05 08:47:00,
2013-07-05 02:52:00,65.5,37.8,24.12,NW,315,5.0,10.0,36,0.00,,,0.00,meteohub,2013-07-05 08:52:00,
2013-07-05 02:57:00,65.7,37.9,24.12,NW,315,5.0,7.0,36,0.00,,,0.00,meteohub,2013-07-05 08:57:00,
2013-07-05 03:02:00,65.5,38.5,24.11,NW,315,3.0,7.0,37,0.00,,,0.00,meteohub,2013-07-05 09:02:00,
2013-07-05 03:07:00,65.5,38.5,24.11,NW,315,3.0,7.0,37,0.00,,,0.00,meteohub,2013-07-05 09:07:00,
2013-07-05 03:12:00,65.1,38.1,24.11,NW,315,8.0,8.0,37,0.00,,,0.00,meteohub,2013-07-05 09:12:00,
2013-07-05 03:22:00,65.3,38.3,24.11,NW,315,8.0,9.0,37,0.00,,,0.00,meteohub,2013-07-05 09:22:00,
2013-07-05 03:27:00,65.3,37.6,24.11,NW,315,8.0,13.0,36,0.00,,,0.00,meteohub,2013-07-05 09:27:00,
2013-07-05 03:32:00,64.9,38.1,24.11,North,0,9.0,13.0,37,0.00,,,0.00,meteohub,2013-07-05 09:32:00,
2013-07-05 03:37:00,64.2,38.7,24.11,North,0,8.0,13.0,39,0.00,,,0.00,meteohub,2013-07-05 09:37:00,
2013-07-05 03:42:00,63.7,38.8,24.11,NE,45,5.0,11.0,40,0.00,,,0.00,meteohub,2013-07-05 09:42:00,
2013-07-05 03:47:00,63.5,38.7,24.11,NE,45,4.0,11.0,40,0.00,,,0.00,meteohub,2013-07-05 09:47:00,
2013-07-05 03:52:00,63.3,39.2,24.11,North,0,4.0,11.0,41,0.00,,,0.00,meteohub,2013-07-05 09:52:00,
2013-07-05 04:02:00,63.1,39.0,24.11,NE,45,4.0,5.0,41,0.00,,,0.00,meteohub,2013-07-05 10:02:00,
2013-07-05 04:07:00,63.1,39.0,24.11,NE,45,4.0,4.0,41,0.00,,,0.00,meteohub,2013-07-05 10:07:00,
2013-07-05 04:12:00,63.5,38.1,24.11,North,0,7.0,7.0,39,0.00,,,0.00,meteohub,2013-07-05 10:12:00,
2013-07-05 04:17:00,63.9,37.0,24.11,North,0,7.0,7.0,37,0.00,,,0.00,meteohub,2013-07-05 10:17:00,
2013-07-05 04:22:00,64.0,37.2,24.11,NW,315,7.0,7.0,37,0.00,,,0.00,meteohub,2013-07-05 10:22:00,
2013-07-05 04:27:00,64.0,37.2,24.11,NNW,338,7.0,7.0,37,0.00,,,0.00,meteohub,2013-07-05 10:27:00,
2013-07-05 04:32:00,64.0,37.2,24.11,NW,315,8.0,8.0,37,0.00,,,0.00,meteohub,2013-07-05 10:32:00,
2013-07-05 04:37:00,64.0,37.2,24.11,NW,315,6.0,8.0,37,0.00,,,0.00,meteohub,2013-07-05 10:37:00,
2013-07-05 04:42:00,64.2,37.4,24.11,NW,315,7.0,8.0,37,0.00,,,0.00,meteohub,2013-07-05 10:42:00,
2013-07-05 04:47:00,64.0,37.2,24.11,NW,315,6.0,8.0,37,0.00,,,0.00,meteohub,2013-07-05 10:47:00,
2013-07-05 04:52:00,63.9,37.8,24.11,NW,315,6.0,7.0,38,0.00,,,0.00,meteohub,2013-07-05 10:52:00,
2013-07-05 04:57:00,63.7,37.6,24.11,NW,315,7.0,7.0,38,0.00,,,0.00,meteohub,2013-07-05 10:57:00,
2013-07-05 05:07:00,63.9,37.8,24.11,NW,315,8.0,8.0,38,0.00,,,0.00,meteohub,2013-07-05 11:07:00,
2013-07-05 05:12:00,63.3,37.9,24.11,NW,315,9.0,9.0,39,0.00,,,0.00,meteohub,2013-07-05 11:12:00,
2013-07-05 05:17:00,63.3,37.2,24.11,NW,315,9.0,9.0,38,0.00,,,0.00,meteohub,2013-07-05 11:17:00,
2013-07-05 05:22:00,63.1,37.8,24.11,NW,315,8.0,9.0,39,0.00,,,0.00,meteohub,2013-07-05 11:22:00,
2013-07-05 05:27:00,63.3,37.9,24.11,NW,315,8.0,9.0,39,0.00,,,0.00,meteohub,2013-07-05 11:27:00,
2013-07-05 05:32:00,63.5,38.1,24.11,NW,315,9.0,9.0,39,0.00,,,0.00,meteohub,2013-07-05 11:32:00,
2013-07-05 05:37:00,63.5,36.7,24.11,NW,315,7.0,9.0,37,0.00,,,0.00,meteohub,2013-07-05 11:37:00,
2013-07-05 05:47:00,63.9,37.0,24.12,NW,315,6.0,9.0,37,0.00,,,0.00,meteohub,2013-07-05 11:47:00,
2013-07-05 05:52:00,64.2,36.7,24.12,NW,315,6.0,8.0,36,0.00,,,0.00,meteohub,2013-07-05 11:52:00,
2013-07-05 05:57:00,64.2,37.4,24.12,North,0,7.0,7.0,37,0.00,,,0.00,meteohub,2013-07-05 11:57:00,
2013-07-05 06:12:00,64.2,38.1,24.12,NW,315,8.0,8.0,38,0.00,,,0.00,meteohub,2013-07-05 12:12:00,
2013-07-05 06:17:00,64.2,38.1,24.12,NW,315,8.0,11.0,38,0.00,,,0.00,meteohub,2013-07-05 12:17:00,
2013-07-05 06:27:00,64.4,36.9,24.12,NW,315,8.0,11.0,36,0.00,,,0.00,meteohub,2013-07-05 12:27:00,
2013-07-05 06:32:00,64.0,37.2,24.12,North,0,8.0,8.0,37,0.00,,,0.00,meteohub,2013-07-05 12:32:00,
2013-07-05 06:37:00,61.9,40.8,24.12,North,0,11.0,11.0,46,0.00,,,0.00,meteohub,2013-07-05 12:37:00,
2013-07-05 06:42:00,61.5,40.5,24.12,North,0,9.0,12.0,46,0.00,,,0.00,meteohub,2013-07-05 12:42:00,
2013-07-05 06:47:00,62.2,40.1,24.12,North,0,10.0,13.0,44,0.00,,,0.00,meteohub,2013-07-05 12:47:00,
2013-07-05 06:52:00,62.1,41.0,24.13,North,0,11.0,13.0,46,0.00,,,0.00,meteohub,2013-07-05 12:52:00,
2013-07-05 06:57:00,60.4,41.7,24.12,North,0,12.0,13.0,50,0.00,,,0.00,meteohub,2013-07-05 12:57:00,
2013-07-05 07:02:00,60.1,41.4,24.13,North,0,12.0,13.0,50,0.00,,,0.00,meteohub,2013-07-05 13:02:00,
2013-07-05 07:07:00,60.1,41.4,24.13,North,0,12.0,15.0,50,0.00,,,0.00,meteohub,2013-07-05 13:07:00,
2013-07-05 07:12:00,60.1,43.3,24.12,North,0,11.0,15.0,54,0.00,,,0.00,meteohub,2013-07-05 13:12:00,
2013-07-05 07:17:00,60.1,43.3,24.13,North,0,12.0,13.0,54,0.00,,,0.00,meteohub,2013-07-05 13:17:00,
2013-07-05 07:27:00,59.2,42.1,24.13,NE,45,17.0,17.0,53,0.00,,,0.00,meteohub,2013-07-05 13:27:00,
2013-07-05 07:32:00,57.6,43.0,24.13,North,0,24.0,24.0,58,0.00,,,0.00,meteohub,2013-07-05 13:32:00,
2013-07-05 07:37:00,55.8,43.0,24.13,North,0,30.0,30.0,62,0.00,,,0.00,meteohub,2013-07-05 13:37:00,
2013-07-05 07:42:00,54.3,44.1,24.13,North,0,32.0,32.0,68,0.00,,,0.00,meteohub,2013-07-05 13:42:00,
2013-07-05 07:47:00,53.2,43.7,24.13,North,0,28.0,33.0,70,0.00,,,0.00,meteohub,2013-07-05 13:47:00,
2013-07-05 07:52:00,53.1,44.6,24.13,North,0,30.0,33.0,73,0.00,,,0.00,meteohub,2013-07-05 13:52:00,
2013-07-05 07:57:00,52.5,44.4,24.14,North,0,32.0,33.0,74,0.00,,,0.00,meteohub,2013-07-05 13:57:00,
2013-07-05 08:07:00,52.3,45.7,24.14,North,0,30.0,32.0,78,0.00,,,0.00,meteohub,2013-07-05 14:07:00,
2013-07-05 08:12:00,52.5,47.5,24.14,North,0,21.0,32.0,83,0.00,,,0.00,meteohub,2013-07-05 14:12:00,
2013-07-05 08:17:00,52.3,48.6,24.15,North,0,21.0,30.0,87,0.00,,,0.00,meteohub,2013-07-05 14:17:00,
2013-07-05 08:22:00,52.3,48.2,24.15,NW,315,22.0,30.0,86,0.00,,,0.00,meteohub,2013-07-05 14:22:00,
2013-07-05 08:27:00,52.3,48.6,24.15,NW,315,21.0,23.0,87,0.00,,,0.00,meteohub,2013-07-05 14:27:00,
2013-07-05 08:32:00,52.3,49.3,24.16,NW,315,17.0,23.0,89,0.00,,,0.00,meteohub,2013-07-05 14:32:00,
2013-07-05 08:37:00,52.3,49.5,24.16,NW,315,17.0,23.0,90,0.00,,,0.00,meteohub,2013-07-05 14:37:00,
2013-07-05 08:42:00,52.3,49.8,24.15,NW,315,13.0,22.0,91,0.00,,,0.00,meteohub,2013-07-05 14:42:00,
2013-07-05 08:47:00,53.4,50.2,24.16,North,0,15.0,21.0,89,0.00,,,0.00,meteohub,2013-07-05 14:47:00,
2013-07-05 08:57:00,52.9,50.4,24.16,North,0,12.0,17.0,91,0.00,,,0.00,meteohub,2013-07-05 14:57:00,
2013-07-05 09:02:00,52.5,50.0,24.16,North,0,12.0,16.0,91,0.00,,,0.00,meteohub,2013-07-05 15:02:00,
2013-07-05 09:07:00,52.5,50.0,24.16,North,0,12.0,14.0,91,0.00,,,0.00,meteohub,2013-07-05 15:07:00,
2013-07-05 09:12:00,52.2,50.2,24.16,North,0,17.0,17.0,93,0.00,,,0.00,meteohub,2013-07-05 15:12:00,
2013-07-05 09:17:00,52.2,50.5,24.15,North,0,15.0,17.0,94,0.00,,,0.00,meteohub,2013-07-05 15:17:00,
2013-07-05 09:22:00,53.2,50.9,24.16,North,0,16.0,17.0,92,0.00,,,0.00,meteohub,2013-07-05 15:22:00,
2013-07-05 09:27:00,53.6,51.6,24.16,North,0,14.0,17.0,93,0.00,,,0.00,meteohub,2013-07-05 15:27:00,
2013-07-05 09:32:00,54.0,51.6,24.16,North,0,15.0,17.0,92,0.00,,,0.00,meteohub,2013-07-05 15:32:00,
2013-07-05 09:42:00,54.3,51.4,24.15,North,0,17.0,17.0,90,0.00,,,0.00,meteohub,2013-07-05 15:42:00,
2013-07-05 09:47:00,54.9,52.0,24.16,North,0,16.0,17.0,90,0.00,,,0.00,meteohub,2013-07-05 15:47:00,
2013-07-05 09:52:00,55.0,51.6,24.15,North,0,16.0,17.0,88,0.00,,,0.00,meteohub,2013-07-05 15:52:00,
2013-07-05 09:57:00,56.3,52.2,24.16,NE,45,14.0,17.0,86,0.00,,,0.00,meteohub,2013-07-05 15:57:00,
2013-07-05 10:02:00,56.7,51.8,24.16,North,0,16.0,17.0,84,0.00,,,0.00,meteohub,2013-07-05 16:02:00,
2013-07-05 10:07:00,56.7,51.8,24.16,North,0,16.0,17.0,84,0.00,,,0.00,meteohub,2013-07-05 16:07:00,
2013-07-05 10:12:00,55.8,51.3,24.16,North,0,17.0,17.0,85,0.00,,,0.00,meteohub,2013-07-05 16:12:00,
2013-07-05 10:17:00,56.5,51.6,24.16,North,0,13.0,19.0,84,0.00,,,0.00,meteohub,2013-07-05 16:17:00,
2013-07-05 10:22:00,56.5,51.4,24.16,NNE,23,21.0,21.0,83,0.00,,,0.00,meteohub,2013-07-05 16:22:00,
2013-07-05 10:27:00,56.8,51.8,24.16,North,0,15.0,21.0,83,0.00,,,0.00,meteohub,2013-07-05 16:27:00,
2013-07-05 10:32:00,57.0,50.5,24.16,North,0,15.0,21.0,79,0.00,,,0.00,meteohub,2013-07-05 16:32:00,
2013-07-05 10:37:00,56.7,51.6,24.16,North,0,17.0,21.0,83,0.00,,,0.00,meteohub,2013-07-05 16:37:00,
2013-07-05 10:42:00,57.6,52.2,24.16,North,0,19.0,21.0,82,0.00,,,0.00,meteohub,2013-07-05 16:42:00,
2013-07-05 10:47:00,57.0,50.5,24.16,North,0,15.0,21.0,79,0.00,,,0.00,meteohub,2013-07-05 16:47:00,
2013-07-05 10:57:00,58.3,52.5,24.16,NW,315,13.0,21.0,81,0.00,,,0.00,meteohub,2013-07-05 16:57:00,
2013-07-05 11:02:00,57.6,51.1,24.16,North,0,18.0,18.0,79,0.00,,,0.00,meteohub,2013-07-05 17:02:00,
2013-07-05 11:07:00,57.6,51.1,24.16,North,0,18.0,21.0,79,0.00,,,0.00,meteohub,2013-07-05 17:07:00,
2013-07-05 11:12:00,58.5,50.2,24.16,NW,315,14.0,21.0,74,0.00,,,0.00,meteohub,2013-07-05 17:12:00,
2013-07-05 11:17:00,58.8,50.9,24.16,North,0,15.0,18.0,75,0.00,,,0.00,meteohub,2013-07-05 17:17:00,
2013-07-05 11:22:00,59.2,49.8,24.16,North,0,18.0,18.0,71,0.00,,,0.00,meteohub,2013-07-05 17:22:00,
2013-07-05 11:27:00,59.2,50.5,24.16,NW,315,15.0,19.0,73,0.00,,,0.00,meteohub,2013-07-05 17:27:00,
2013-07-05 11:32:00,59.5,50.9,24.15,North,0,17.0,21.0,73,0.00,,,0.00,meteohub,2013-07-05 17:32:00,
2013-07-05 11:37:00,59.9,49.6,24.15,North,0,15.0,21.0,69,0.00,,,0.00,meteohub,2013-07-05 17:37:00,
2013-07-05 11:42:00,60.8,50.5,24.15,North,0,15.0,21.0,69,0.00,,,0.00,meteohub,2013-07-05 17:42:00,
2013-07-05 11:47:00,60.4,51.1,24.16,NE,45,18.0,19.0,71,0.00,,,0.00,meteohub,2013-07-05 17:47:00,
2013-07-05 11:52:00,60.4,50.5,24.15,North,0,11.0,18.0,70,0.00,,,0.00,meteohub,2013-07-05 17:52:00,
2013-07-05 11:57:00,61.0,51.1,24.15,North,0,18.0,19.0,70,0.00,,,0.00,meteohub,2013-07-05 17:57:00,
2013-07-05 12:02:00,60.6,51.6,24.16,North,0,17.0,19.0,72,0.00,,,0.00,meteohub,2013-07-05 18:02:00,
2013-07-05 12:07:00,60.6,51.6,24.15,North,0,17.0,19.0,72,0.00,,,0.00,meteohub,2013-07-05 18:07:00,
2013-07-05 12:12:00,60.6,50.7,24.15,North,0,16.0,18.0,70,0.00,,,0.00,meteohub,2013-07-05 18:12:00,
2013-07-05 12:17:00,61.0,49.5,24.15,North,0,18.0,20.0,66,0.00,,,0.00,meteohub,2013-07-05 18:17:00,
2013-07-05 12:22:00,61.5,50.9,24.15,NE,45,17.0,20.0,68,0.00,,,0.00,meteohub,2013-07-05 18:22:00,
2013-07-05 12:27:00,61.7,51.4,24.15,WNW,293,21.0,21.0,69,0.00,,,0.00,meteohub,2013-07-05 18:27:00,
2013-07-05 12:32:00,61.7,50.2,24.14,North,0,18.0,21.0,66,0.00,,,0.00,meteohub,2013-07-05 18:32:00,
2013-07-05 12:37:00,62.1,51.4,24.15,North,0,17.0,21.0,68,0.00,,,0.00,meteohub,2013-07-05 18:37:00,
2013-07-05 12:42:00,61.5,49.3,24.14,North,0,19.0,23.0,64,0.00,,,0.00,meteohub,2013-07-05 18:42:00,
2013-07-05 12:47:00,62.1,50.5,24.14,North,0,20.0,23.0,66,0.00,,,0.00,meteohub,2013-07-05 18:47:00,
2013-07-05 12:52:00,63.0,51.1,24.14,NE,45,15.0,23.0,65,0.00,,,0.00,meteohub,2013-07-05 18:52:00,
2013-07-05 12:57:00,62.4,50.9,24.14,North,0,20.0,22.0,66,0.00,,,0.00,meteohub,2013-07-05 18:57:00,
2013-07-05 13:02:00,62.2,51.1,24.14,North,0,18.0,22.0,67,0.00,,,0.00,meteohub,2013-07-05 19:02:00,
2013-07-05 13:07:00,62.2,51.1,24.14,North,0,18.0,22.0,67,0.00,,,0.00,meteohub,2013-07-05 19:07:00,
2013-07-05 13:12:00,62.4,50.0,24.14,North,0,16.0,22.0,64,0.00,,,0.00,meteohub,2013-07-05 19:12:00,
2013-07-05 13:17:00,63.3,49.6,24.14,NE,45,14.0,19.0,61,0.00,,,0.00,meteohub,2013-07-05 19:17:00,
2013-07-05 13:22:00,64.2,51.4,24.14,NE,45,9.0,19.0,63,0.00,,,0.00,meteohub,2013-07-05 19:22:00,
2013-07-05 13:27:00,63.9,49.3,24.14,NE,45,15.0,17.0,59,0.00,,,0.00,meteohub,2013-07-05 19:27:00,
2013-07-05 13:32:00,63.9,48.7,24.14,North,0,16.0,20.0,58,0.00,,,0.00,meteohub,2013-07-05 19:32:00,
2013-07-05 13:37:00,64.6,49.5,24.14,North,0,15.0,20.0,58,0.00,,,0.00,meteohub,2013-07-05 19:37:00,
2013-07-05 13:42:00,64.6,50.0,24.14,North,0,11.0,20.0,59,0.00,,,0.00,meteohub,2013-07-05 19:42:00,
2013-07-05 13:47:00,64.4,48.4,24.14,North,0,12.0,17.0,56,0.00,,,0.00,meteohub,2013-07-05 19:47:00,
2013-07-05 13:52:00,64.2,49.6,24.14,North,0,20.0,20.0,59,0.00,,,0.00,meteohub,2013-07-05 19:52:00,
2013-07-05 13:57:00,64.2,49.6,24.14,North,0,11.0,21.0,59,0.00,,,0.00,meteohub,2013-07-05 19:57:00,
2013-07-05 14:02:00,63.9,48.4,24.14,North,0,17.0,21.0,57,0.00,,,0.00,meteohub,2013-07-05 20:02:00,
2013-07-05 14:07:00,63.9,48.4,24.14,North,0,17.0,21.0,57,0.00,,,0.00,meteohub,2013-07-05 20:07:00,
2013-07-05 14:12:00,64.4,48.4,24.14,North,0,9.0,19.0,56,0.00,,,0.00,meteohub,2013-07-05 20:12:00,
2013-07-05 14:17:00,65.5,48.9,24.14,NE,45,14.0,17.0,55,0.00,,,0.00,meteohub,2013-07-05 20:17:00,
2013-07-05 14:22:00,66.4,49.6,24.14,NE,45,8.0,18.0,55,0.00,,,0.00,meteohub,2013-07-05 20:22:00,
2013-07-05 14:27:00,66.7,50.5,24.14,NE,45,17.0,18.0,56,0.00,,,0.00,meteohub,2013-07-05 20:27:00,
2013-07-05 14:32:00,66.2,50.5,24.14,North,0,13.0,19.0,57,0.00,,,0.00,meteohub,2013-07-05 20:32:00,
2013-07-05 14:37:00,66.4,49.3,24.14,North,0,16.0,19.0,54,0.00,,,0.00,meteohub,2013-07-05 20:37:00,
2013-07-05 14:42:00,65.7,48.6,24.13,North,0,15.0,19.0,54,0.00,,,0.00,meteohub,2013-07-05 20:42:00,
2013-07-05 14:47:00,66.0,49.8,24.14,North,0,13.0,18.0,56,0.00,,,0.00,meteohub,2013-07-05 20:47:00,
2013-07-05 14:52:00,66.7,49.6,24.14,East,90,12.0,18.0,54,0.00,,,0.00,meteohub,2013-07-05 20:52:00,
2013-07-05 14:57:00,67.3,48.6,24.14,NNE,23,12.0,18.0,51,0.00,,,0.00,meteohub,2013-07-05 20:57:00,
2013-07-05 15:02:00,67.5,48.7,24.13,NNE,23,17.0,17.0,51,0.00,,,0.00,meteohub,2013-07-05 21:02:00,
2013-07-05 15:07:00,67.5,48.7,24.13,NNE,23,17.0,17.0,51,0.00,,,0.00,meteohub,2013-07-05 21:07:00,
2013-07-05 15:12:00,67.3,48.6,24.13,NE,45,15.0,20.0,51,0.00,,,0.00,meteohub,2013-07-05 21:12:00,
2013-07-05 15:17:00,66.9,48.2,24.13,North,0,19.0,20.0,51,0.00,,,0.00,meteohub,2013-07-05 21:17:00,
2013-07-05 15:22:00,66.6,47.3,24.13,North,0,17.0,20.0,50,0.00,,,0.00,meteohub,2013-07-05 21:22:00,
2013-07-05 15:27:00,66.2,48.6,24.13,North,0,9.0,21.0,53,0.00,,,0.00,meteohub,2013-07-05 21:27:00,
2013-07-05 15:32:00,65.8,48.2,24.13,North,0,10.0,21.0,53,0.00,,,0.00,meteohub,2013-07-05 21:32:00,
2013-07-05 15:37:00,67.8,50.0,24.12,North,0,21.0,21.0,53,0.00,,,0.00,meteohub,2013-07-05 21:37:00,
2013-07-05 15:42:00,67.5,48.7,24.12,SE,135,13.0,22.0,51,0.00,,,0.00,meteohub,2013-07-05 21:42:00,
2013-07-05 15:47:00,67.5,48.2,24.12,North,0,16.0,22.0,50,0.00,,,0.00,meteohub,2013-07-05 21:47:00,
2013-07-05 15:52:00,67.5,47.7,24.11,North,0,20.0,22.0,49,0.00,,,0.00,meteohub,2013-07-05 21:52:00,
2013-07-05 15:57:00,67.6,47.3,24.12,North,0,16.0,23.0,48,0.00,,,0.00,meteohub,2013-07-05 21:57:00,
2013-07-05 16:02:00,68.2,47.7,24.12,NE,45,10.0,23.0,48,0.00,,,0.00,meteohub,2013-07-05 22:02:00,
2013-07-05 16:07:00,68.2,47.7,24.12,NE,45,10.0,20.0,48,0.00,,,0.00,meteohub,2013-07-05 22:07:00,
2013-07-05 16:12:00,68.7,48.2,24.12,North,0,16.0,19.0,48,0.00,,,0.00,meteohub,2013-07-05 22:12:00,
2013-07-05 16:17:00,68.9,48.4,24.11,North,0,17.0,19.0,48,0.00,,,0.00,meteohub,2013-07-05 22:17:00,
2013-07-05 16:22:00,68.4,48.9,24.11,North,0,15.0,19.0,50,0.00,,,0.00,meteohub,2013-07-05 22:22:00,
2013-07-05 16:27:00,68.0,46.4,24.11,NE,45,14.0,17.0,46,0.00,,,0.00,meteohub,2013-07-05 22:27:00,
2013-07-05 16:32:00,68.9,47.8,24.11,NE,45,15.0,21.0,47,0.00,,,0.00,meteohub,2013-07-05 22:32:00,
2013-07-05 16:37:00,69.1,48.0,24.10,North,0,9.0,21.0,47,0.00,,,0.00,meteohub,2013-07-05 22:37:00,
2013-07-05 16:42:00,69.4,48.9,24.10,North,0,17.0,21.0,48,0.00,,,0.00,meteohub,2013-07-05 22:42:00,
2013-07-05 16:47:00,69.3,49.8,24.10,North,0,17.0,17.0,50,0.00,,,0.00,meteohub,2013-07-05 22:47:00,
2013-07-05 16:52:00,68.9,46.8,24.10,NE,45,11.0,19.0,45,0.00,,,0.00,meteohub,2013-07-05 22:52:00,
2013-07-05 16:57:00,69.3,49.3,24.10,NNW,338,12.0,19.0,49,0.00,,,0.00,meteohub,2013-07-05 22:57:00,
2013-07-05 17:02:00,69.1,48.0,24.09,North,0,19.0,19.0,47,0.00,,,0.00,meteohub,2013-07-05 23:02:00,
2013-07-05 17:07:00,69.1,48.0,24.09,North,0,19.0,19.0,47,0.00,,,0.00,meteohub,2013-07-05 23:07:00,
2013-07-05 17:12:00,68.2,47.1,24.09,North,0,17.0,19.0,47,0.00,,,0.00,meteohub,2013-07-05 23:12:00,
2013-07-05 17:17:00,68.0,48.7,24.09,WSW,248,17.0,21.0,50,0.00,,,0.00,meteohub,2013-07-05 23:17:00,
2013-07-05 17:22:00,66.6,47.8,24.09,North,0,15.0,21.0,51,0.00,,,0.00,meteohub,2013-07-05 23:22:00,
2013-07-05 17:27:00,65.8,48.2,24.09,North,0,16.0,20.0,53,0.00,,,0.00,meteohub,2013-07-05 23:27:00,
2013-07-05 17:32:00,65.8,48.7,24.09,North,0,14.0,19.0,54,0.00,,,0.00,meteohub,2013-07-05 23:32:00,
2013-07-05 17:37:00,66.2,49.6,24.09,NE,45,10.0,17.0,55,0.00,,,0.00,meteohub,2013-07-05 23:37:00,
2013-07-05 17:42:00,66.0,48.4,24.09,North,0,16.0,16.0,53,0.00,,,0.00,meteohub,2013-07-05 23:42:00,
2013-07-05 17:47:00,65.5,48.4,24.08,North,0,17.0,17.0,54,0.00,,,0.00,meteohub,2013-07-05 23:47:00,
2013-07-05 17:52:00,65.5,48.9,24.09,NE,45,16.0,18.0,55,0.00,,,0.00,meteohub,2013-07-05 23:52:00,
2013-07-05 17:57:00,64.9,47.5,24.09,NE,45,15.0,18.0,53,0.00,,,0.00,meteohub,2013-07-05 23:57:00,
2013-07-05 18:02:00,64.8,47.3,24.08,North,0,16.0,18.0,53,0.00,,,0.00,meteohub,2013-07-06 00:02:00,
2013-07-05 18:07:00,64.8,47.3,24.09,North,0,16.0,18.0,53,0.00,,,0.00,meteohub,2013-07-06 00:07:00,
2013-07-05 18:12:00,64.6,47.5,24.09,NE,45,12.0,17.0,54,0.00,,,0.00,meteohub,2013-07-06 00:12:00,
2013-07-05 18:17:00,64.4,47.8,24.09,North,0,11.0,16.0,55,0.00,,,0.00,meteohub,2013-07-06 00:17:00,
2013-07-05 18:22:00,64.2,48.7,24.09,North,0,13.0,16.0,57,0.00,,,0.00,meteohub,2013-07-06 00:22:00,
2013-07-05 18:27:00,63.9,48.7,24.09,North,0,15.0,15.0,58,0.00,,,0.00,meteohub,2013-07-06 00:27:00,
2013-07-05 18:32:00,63.5,49.3,24.09,NE,45,14.0,15.0,60,0.00,,,0.00,meteohub,2013-07-06 00:32:00,
2013-07-05 18:37:00,63.3,49.3,24.09,NE,45,11.0,16.0,60,0.00,,,0.00,meteohub,2013-07-06 00:37:00,
2013-07-05 18:42:00,63.1,49.5,24.09,North,0,11.0,16.0,61,0.00,,,0.00,meteohub,2013-07-06 00:42:00,
2013-07-05 18:47:00,63.0,49.8,24.08,NE,45,9.0,15.0,62,0.00,,,0.00,meteohub,2013-07-06 00:47:00,
2013-07-05 18:52:00,62.8,50.4,24.08,NNE,23,10.0,15.0,64,0.00,,,0.00,meteohub,2013-07-06 00:52:00,
2013-07-05 18:57:00,62.8,49.1,24.08,NE,45,8.0,11.0,61,0.00,,,0.00,meteohub,2013-07-06 00:57:00,
2013-07-05 19:02:00,62.8,50.0,24.08,NE,45,9.0,11.0,63,0.00,,,0.00,meteohub,2013-07-06 01:02:00,
2013-07-05 19:07:00,62.8,50.0,24.09,NE,45,9.0,10.0,63,0.00,,,0.00,meteohub,2013-07-06 01:07:00,
2013-07-05 19:12:00,63.0,48.9,24.09,NE,45,10.0,10.0,60,0.00,,,0.00,meteohub,2013-07-06 01:12:00,
2013-07-05 19:17:00,62.8,49.1,24.09,NNE,23,7.0,10.0,61,0.00,,,0.00,meteohub,2013-07-06 01:17:00,
2013-07-05 19:22:00,62.6,49.8,24.09,North,0,7.0,10.0,63,0.00,,,0.00,meteohub,2013-07-06 01:22:00,
2013-07-05 19:27:00,62.6,49.8,24.09,NE,45,6.0,10.0,63,0.00,,,0.00,meteohub,2013-07-06 01:27:00,
2013-07-05 19:32:00,62.2,50.7,24.08,NNE,23,7.0,8.0,66,0.00,,,0.00,meteohub,2013-07-06 01:32:00,
2013-07-05 19:37:00,62.2,50.4,24.08,NE,45,2.0,8.0,65,0.00,,,0.00,meteohub,2013-07-06 01:37:00,
2013-07-05 19:42:00,62.1,49.3,24.08,ENE,68,3.0,8.0,63,0.00,,,0.00,meteohub,2013-07-06 01:42:00,
2013-07-05 19:47:00,62.2,49.5,24.09,NW,315,6.0,7.0,63,0.00,,,0.00,meteohub,2013-07-06 01:47:00,
2013-07-05 19:52:00,61.7,51.8,24.09,NW,315,11.0,11.0,70,0.00,,,0.00,meteohub,2013-07-06 01:52:00,
2013-07-05 19:57:00,60.3,51.6,24.10,NW,315,7.0,12.0,73,0.00,,,0.00,meteohub,2013-07-06 01:57:00,
2013-07-05 20:02:00,60.3,51.6,24.09,North,0,6.0,14.0,73,0.00,,,0.00,meteohub,2013-07-06 02:02:00,
2013-07-05 20:07:00,60.3,51.6,24.09,North,0,6.0,14.0,73,0.00,,,0.00,meteohub,2013-07-06 02:07:00,
2013-07-05 20:12:00,60.3,50.4,24.09,South,180,5.0,8.0,70,0.00,,,0.00,meteohub,2013-07-06 02:12:00,
2013-07-05 20:17:00,61.2,51.6,24.09,South,180,7.0,7.0,71,0.00,,,0.00,meteohub,2013-07-06 02:17:00,
2013-07-05 20:22:00,61.5,50.9,24.09,South,180,11.0,11.0,68,0.00,,,0.00,meteohub,2013-07-06 02:22:00,
2013-07-05 20:27:00,61.9,50.4,24.08,SE,135,8.0,11.0,66,0.00,,,0.00,meteohub,2013-07-06 02:27:00,
2013-07-05 20:32:00,62.6,49.8,24.08,South,180,6.0,11.0,63,0.00,,,0.00,meteohub,2013-07-06 02:32:00,
2013-07-05 20:37:00,62.8,48.7,24.08,South,180,8.0,11.0,60,0.00,,,0.00,meteohub,2013-07-06 02:37:00,
2013-07-05 20:42:00,62.6,46.8,24.07,South,180,7.0,11.0,56,0.00,,,0.00,meteohub,2013-07-06 02:42:00,
2013-07-05 20:47:00,62.2,45.9,24.08,South,180,8.0,9.0,55,0.00,,,0.00,meteohub,2013-07-06 02:47:00,
2013-07-05 20:52:00,61.3,45.5,24.08,South,180,8.0,9.0,56,0.00,,,0.00,meteohub,2013-07-06 02:52:00,
2013-07-05 20:57:00,59.7,45.9,24.08,SSW,203,8.0,12.0,60,0.00,,,0.00,meteohub,2013-07-06 02:57:00,
2013-07-05 21:02:00,59.5,45.1,24.07,South,180,8.0,12.0,59,0.00,,,0.00,meteohub,2013-07-06 03:02:00,
2013-07-05 21:07:00,59.5,45.1,24.07,South,180,8.0,12.0,59,0.00,,,0.00,meteohub,2013-07-06 03:07:00,
2013-07-05 21:12:00,59.4,45.5,24.07,South,180,11.0,11.0,60,0.00,,,0.00,meteohub,2013-07-06 03:12:00,
2013-07-05 21:17:00,59.0,45.5,24.07,SSW,203,10.0,11.0,61,0.00,,,0.00,meteohub,2013-07-06 03:17:00,
2013-07-05 21:22:00,59.0,45.5,24.07,SW,225,12.0,12.0,61,0.00,,,0.00,meteohub,2013-07-06 03:22:00,
2013-07-05 21:27:00,59.0,45.5,24.07,SW,225,14.0,14.0,61,0.00,,,0.00,meteohub,2013-07-06 03:27:00,
2013-07-05 21:32:00,59.4,45.0,24.08,SSW,203,13.0,15.0,59,0.00,,,0.00,meteohub,2013-07-06 03:32:00,
2013-07-05 21:37:00,58.1,45.5,24.08,SW,225,17.0,17.0,63,0.00,,,0.00,meteohub,2013-07-06 03:37:00,
2013-07-05 21:42:00,57.2,46.8,24.08,SSW,203,17.0,17.0,68,0.00,,,0.00,meteohub,2013-07-06 03:42:00,
2013-07-05 21:47:00,56.8,46.4,24.09,South,180,16.0,17.0,68,0.00,,,0.00,meteohub,2013-07-06 03:47:00,
2013-07-05 21:52:00,56.5,47.5,24.09,South,180,16.0,17.0,72,0.00,,,0.00,meteohub,2013-07-06 03:52:00,
2013-07-05 21:57:00,55.9,48.2,24.09,South,180,16.0,19.0,75,0.00,,,0.00,meteohub,2013-07-06 03:57:00,
2013-07-05 22:02:00,55.8,48.4,24.09,South,180,15.0,19.0,76,0.00,,,0.00,meteohub,2013-07-06 04:02:00,
2013-07-05 22:07:00,55.8,48.4,24.09,South,180,15.0,19.0,76,0.00,,,0.00,meteohub,2013-07-06 04:07:00,
2013-07-05 22:12:00,55.4,50.0,24.09,South,180,17.0,21.0,82,0.00,,,0.00,meteohub,2013-07-06 04:12:00,
2013-07-05 22:17:00,55.2,50.2,24.10,South,180,20.0,21.0,83,0.00,,,0.00,meteohub,2013-07-06 04:17:00,
2013-07-05 22:22:00,55.4,50.9,24.10,South,180,19.0,21.0,85,0.00,,,0.00,meteohub,2013-07-06 04:22:00,
2013-07-05 22:27:00,55.6,50.2,24.09,South,180,21.0,21.0,82,0.00,,,0.00,meteohub,2013-07-06 04:27:00,
2013-07-05 22:32:00,55.4,50.4,24.10,South,180,18.0,21.0,83,0.00,,,0.00,meteohub,2013-07-06 04:32:00,
2013-07-05 22:37:00,55.2,50.2,24.11,South,180,12.0,22.0,83,0.00,,,0.00,meteohub,2013-07-06 04:37:00,
2013-07-05 22:42:00,55.2,49.5,24.11,South,180,8.0,22.0,81,0.00,,,0.00,meteohub,2013-07-06 04:42:00,
2013-07-05 22:47:00,55.2,50.2,24.11,South,180,13.0,22.0,83,0.00,,,0.00,meteohub,2013-07-06 04:47:00,
2013-07-05 22:52:00,55.2,51.1,24.11,SW,225,13.0,15.0,86,0.00,,,0.00,meteohub,2013-07-06 04:52:00,
2013-07-05 22:57:00,55.0,51.3,24.11,South,180,15.0,15.0,87,0.00,,,0.00,meteohub,2013-07-06 04:57:00,
2013-07-05 23:02:00,55.0,51.3,24.11,SSW,203,14.0,17.0,87,0.00,,,0.00,meteohub,2013-07-06 05:02:00,
2013-07-05 23:07:00,55.0,51.3,24.11,SSW,203,14.0,17.0,87,0.00,,,0.00,meteohub,2013-07-06 05:07:00,
2013-07-05 23:12:00,55.6,50.9,24.11,SW,225,11.0,17.0,84,0.00,,,0.00,meteohub,2013-07-06 05:12:00,
2013-07-05 23:17:00,55.9,50.5,24.12,South,180,11.0,16.0,82,0.00,,,0.00,meteohub,2013-07-06 05:17:00,
2013-07-05 23:22:00,55.9,50.5,24.11,South,180,5.0,16.0,82,0.00,,,0.00,meteohub,2013-07-06 05:22:00,
2013-07-05 23:27:00,55.4,50.0,24.12,West,270,2.0,14.0,82,0.00,,,0.00,meteohub,2013-07-06 05:27:00,
2013-07-05 23:32:00,55.2,50.5,24.12,North,0,2.0,11.0,84,0.00,,,0.00,meteohub,2013-07-06 05:32:00,
2013-07-05 23:37:00,53.4,48.0,24.12,North,0,8.0,8.0,82,0.00,,,0.00,meteohub,2013-07-06 05:37:00,
2013-07-05 23:42:00,52.0,47.3,24.12,North,0,10.0,10.0,84,0.00,,,0.00,meteohub,2013-07-06 05:42:00,
2013-07-05 23:47:00,50.7,47.7,24.12,North,0,9.0,10.0,89,0.00,,,0.00,meteohub,2013-07-06 05:47:00,
2013-07-05 23:52:00,50.2,48.0,24.12,North,0,11.0,11.0,92,0.00,,,0.00,meteohub,2013-07-06 05:52:00,
2013-07-05 23:57:00,50.0,48.0,24.12,North,0,11.0,12.0,93,0.00,,,0.00,meteohub,2013-07-06 05:57:00,